Weather Roundup
Issued by NWS Springfield, MO

Home | Current Version | Previous Version | Text Only | Print | Product List | Glossary On
Versions: 1 2 3 4 5 6 7 8 9 10 11 12 13 14 15 16 17 18 19 20 21 22 23 24 25 26 27 28 29 30 31 32 33 34 35 36 37 38 39 40 41 42 43 44 45 46 47 48 49 50
000
NZUS99 KSGF 290407
HRRSGF

HOURLY WEATHER
NATIONAL WEATHER SERVICE SPRINGFIELD MO
1100 PM CDT WED JUN 28 2017

......SGF CWA......

CITY           SKY/WX    TMP DP  RH WIND       PRES   REMARKS
SPRINGFIELD    CLEAR     75  65  70 S13       29.90R
JOPLIN         CLEAR     78  68  71 S12       29.87R
WEST PLAINS    CLEAR     74  65  73 S8        29.97R
ROLLA          CLOUDY    76  64  66 S15       29.90R
OSAGE BEACH    CLOUDY    76  64  66 S6        29.89R
BRANSON          N/A     72  64  78 SE7       29.95S

......SURROUNDING SGF CWA......

CITY           SKY/WX    TMP DP  RH WIND       PRES   REMARKS
CHANUTE        CLEAR     79  68  69 S13       29.82R
PARSONS        CLEAR     79  67  66 S8        29.83S
COFFEYVILLE    HAZE      79  68  69 S9        29.82S VSB 3/4
EMPORIA        CLEAR     79  67  66 S18       29.76S
GROVE OK       CLEAR     75  68  78 SE3       29.88S
ROGERS AR      CLEAR     75  65  70 SE10      29.92S
SILOAM SPRINGS CLEAR     75  64  69 S7        29.91S
HARRISON AR    CLEAR     72  66  81 SE7       29.96R
NEAR YELLVILLE CLEAR     75  63  64 SE3       29.92R

......KANSAS AND MISSOURI......

CITY           SKY/WX    TMP DP  RH WIND       PRES   REMARKS
KANSAS CTY INT MOCLDY    81  69  67 S24G31    29.75R
DOWNTOWN KC    CLEAR     83  68  60 S20G28    29.76R
COLUMBIA       MOCLDY    78  64  61 S10       29.87R
SEDALIA        CLOUDY    77  68  73 S13       29.85R
ST JOSEPH      CLOUDY    82  70  66 S17G26    29.71R
ST LOUIS       CLOUDY    82  64  54 S12       29.91R
SPIRIT OF STL  CLOUDY    79  65  62 S7        29.88R
KIRKSVILLE     TSTM      66  66 100 S20       29.86F
WICHITA        PTCLDY    81  67  62 S15       29.76R
TOPEKA         CLEAR     83  70  64 S14       29.73R
OLATHE         CLEAR     78  69  73 S12G22    29.79R

......TENNESSEE......

CITY           SKY/WX    TMP DP  RH WIND       PRES   REMARKS
MEMPHIS        CLEAR     80  67  64 SE10      29.97S
NASHVILLE      CLEAR     74  61  63 S3        30.04R

......ARKANSAS.......

CITY           SKY/WX    TMP DP  RH WIND       PRES   REMARKS
FT SMITH       CLEAR     79  68  69 S3        29.89R
LITTLE ROCK    CLEAR     75  69  81 SE5       29.94R

......OKLAHOMA.......

CITY           SKY/WX    TMP DP  RH WIND       PRES   REMARKS
TULSA          CLEAR     83  69  62 S15       29.82R
PONCA CITY     CLEAR     82  65  56 S14G22    29.79R
MCALESTER      PTCLDY    81  68  64 VRB6      29.88S
OKLAHOMA CITY  CLEAR     78  66  66 S14       29.83R

......IOWA............

CITY           SKY/WX    TMP DP  RH WIND       PRES   REMARKS
DES MOINES     CLOUDY    71  65  81 SW9       29.69R
QUAD CITIES    CLOUDY    80  65  59 SW10      29.72R

......ILLINOIS........

CITY           SKY/WX    TMP DP  RH WIND       PRES   REMARKS
QUINCY         CLOUDY    77  65  66 SW8       29.88R
CHICAGO        LGT RAIN  68  65  90 NE8       29.85R




USA.gov is the U.S. government's official web portal to all federal, state and local government web resources and services.